Skip Page Navigation
NASA JPL Caltech
NASA Logo - Jet Propulsion Laboratory + View the NASA Portal
+ Center for Near-Earth Object Studies
JPL Home Earth Solar System Stars & Galaxies Technology
JPL Solar System Dynamics
BODIES ORBITS EPHEMERIDES TOOLS PHYSICAL DATA DISCOVERY FAQ SITE MAP
JPL Small-Body Database Browser
Search: [ help ]  
307261 (2002 MS4)
Classification: TransNeptunian Object          SPK-ID: 2307261
Ephemeris | Orbit Diagram | Orbital Elements | Physical Parameters | Discovery Circumstances ]

[ hide orbit diagram ]

For accurate long-term ephemerides, please instead use our Horizons system.This orbit viewer was implemented using two-body methods, and hence should not be used for determining accurate long-term trajectories (over several years or decades) or planetary encounter circumstances.


Orbital Elements at Epoch 2459200.5 (2020-Dec-17.0) TDB
Reference: JPL 17 (heliocentric ecliptic J2000)
 Element Value Uncertainty (1-sigma)   Units 
e .1401827210011748 6.8872e-05  
a 42.03300858766435 0.0034468 au
q 36.14070707197981 0.0058562 au
i 17.68934655891389 0.00012757 deg
node 216.0729835081166 0.00062215 deg
peri 212.3286295003707 0.0055989 deg
M 226.3251122532988 0.0041968 deg
tp 2496160.457993826596
(2122-Feb-25.95799383)
4.6631 TDB
period 99536.90705908914
272.52
12.243
0.03352
d
yr
n .003616748908887529 4.4487e-07 deg/d
Q 47.92531010334888 0.0039299 au
  Orbit Determination Parameters
   # obs. used (total)      77  
   data-arc span      24188 days (66.22 yr)  
   first obs. used      1954-04-08  
   last obs. used      2020-06-28  
   planetary ephem.      DE441  
   SB-pert. ephem.      SB441-N16  
   condition code      3  
   norm. resid. RMS      .4495  
   source      ORB  
   producer      Otto Matic  
   solution date      2021-Apr-14 06:02:31  

Additional Information
 Earth MOID = 35.1673 au 
 Jupiter MOID = 31.1523 au 
 T_jup = 5.486 
[ show covariance matrix ]

Ephemeris | Orbit Diagram | Orbital Elements | Physical Parameters | Discovery Circumstances ]

Physical Parameter Table
Parameter Symbol Value Units Sigma Reference Notes
absolute magnitude H 3.76   n/a E2021B25  

307261 (2002 MS4)          Discovered 2002-Jun-18 by Trujillo, C. A., Brown, M. E. at Palomar
Reference: 20111210/Numbers.arcLast Updated: 2011-12-12
Ephemeris | Orbit Diagram | Orbital Elements | Physical Parameters | Discovery Circumstances ]
ABOUT SSD CREDITS/AWARDS PRIVACY/COPYRIGHT GLOSSARY LINKS
FirstGov 2021-May-18 12:43 UT
(server date/time)  
NASA Home Page
Site Manager:   Ryan S. Park
Webmaster  Alan B. Chamberlin